Regional Weather Roundup
Issued by NWS

Home | Current Version | Previous Version | Graphics & Text | Print | Product List | Glossary On
Versions: 1 2 3 4 5 6 7 8 9 10 11 12 13 14 15 16 17 18 19 20 21 22 23 24 25 26 27 28 29 30 31 32 33 34 35 36 37 38 39 40 41 42 43 44 45 46 47 48 49 50
165
ASUS45 KABQ 210801
RWRNM
NEW MEXICO REGIONAL WEATHER ROUNDUP
NATIONAL WEATHER SERVICE ALBUQUERQUE NM
100 AM MST TUE FEB 21 2017

NOTE: "FAIR" MEANS FEW OR NO CLOUDS BELOW 12,000 FEET AGL WITH NO
       SIGNIFICANT WEATHER OR OBSTRUCTIONS TO VISION.

      THIS PRODUCT IS RELEASED AS TWO VERSIONS.  ONE VERSION NEAR
      THE TOP OF THE HOUR CONTAINING PRELIMINARY DATA FROM ALBUQUERQUE
      AND OTHER STATIONS.  A FINAL VERSION WITH ADDITIONAL DATA IS
      ISSUED ABOUT 10 MINUTES AFTER THE HOUR.

NMZ501-503-504-510>518-210900-
NORTHWEST PLATEAU/NORTHCENTRAL MOUNTAINS

CITY           SKY/WX    TMP DP  RH WIND       PRES   REMARKS
FARMINGTON     FAIR      37  31  78 E6        30.35R WCI  32
LOS ALAMOS     MOCLDY    38  26  59 CALM      30.36R
SANTA FE       FAIR      35  25  66 N9        30.31R WCI  28
TAOS             N/A     30  18  59 E6        30.34S WCI  24
ANGEL FIRE     FAIR      34  24  65 SW13G20   30.30F WCI  25

$$
NMZ402-403-502-505>509-210900-
WESTCENTRAL MOUNTAINS/SOUTHWEST MOUNTAINS

CITY           SKY/WX    TMP DP  RH WIND       PRES   REMARKS
GALLUP         FAIR      30  27  88 CALM      30.41R
GRANTS         FAIR      33  29  85 W10G20    30.39S WCI  25
SILVER CITY    FAIR      40  35  83 NW9       30.34S WCI  34

$$
NMZ407-409-411-412-210900-
SOUTHERN DESERTS

CITY           SKY/WX    TMP DP  RH WIND       PRES   REMARKS
DEMING         FAIR      47  37  68 NW9       30.31R
LAS CRUCES     FAIR      43  34  70 CALM      30.30R
HOLLOMAN AFB   FAIR      41  25  53 NE5       30.31R
ALAMOGORDO     FAIR      46  25  42 NE8       30.28R
T OR C         FAIR      49  29  46 NW12      30.29R

$$
NMZ519>523-210900-
CENTRAL VALLEYS/CENTRAL HIGHLANDS

CITY           SKY/WX    TMP DP  RH WIND       PRES   REMARKS
ALBUQUERQUE    FAIR      46  30  53 VRB6      30.33R
DOUBLE EAGLE   FAIR      38  29  71 NW9       30.34R WCI  31
MORIARTY ARPT  FAIR      45  29  53 NW13G20   30.29F
CLINES CORNERS FAIR      39  26  59 W26       30.27F WCI  28
BELEN          FAIR      44  30  58 N5        30.32S
SOCORRO        FAIR      44  30  58 E8        30.30S

$$
NMZ524>526-539-540-210900-
SOUTHCENTRAL MOUNTAINS

CITY           SKY/WX    TMP DP  RH WIND       PRES   REMARKS
RUIDOSO        FAIR      43  21  42 NW6       30.31R

$$
NMZ527>531-210900-
NORTHEAST HIGHLANDS/NORTHEAST PLAINS

CITY           SKY/WX    TMP DP  RH WIND       PRES   REMARKS
LAS VEGAS      FAIR      35  12  38 N6        30.22R WCI  30
RATON          NOT AVBL
CLAYTON        FAIR      41  17  38 W12       30.12F

$$
NMZ532>537-210900-
EASTCENTRAL PLAINS

CITY           SKY/WX    TMP DP  RH WIND       PRES   REMARKS
TUCUMCARI      FAIR      37  20  50 W5        30.12R WCI  33
CANNON AFB     FAIR      43  23  46 W7        30.14F
CLOVIS AIRPORT FAIR      36  21  55 SW5       30.14S WCI  32

$$
NMZ028-029-538-210900-
SOUTHEAST PLAINS

CITY           SKY/WX    TMP DP  RH WIND       PRES   REMARKS
ROSWELL        FAIR      43  24  47 NE3         N/A
ARTESIA        FAIR      50  25  37 W15       30.16S
CARLSBAD       FAIR      50  26  39 CALM      30.15R
HOBBS          FAIR      41  25  52 W9        30.16S


$$




USA.gov is the U.S. government's official web portal to all federal, state and local government web resources and services.